Juliana Airport, Sint Maarten

3:33 AM AST on March 27, 2017 (GMT -0400)
Princess Juliana International

Weather History for TNCM - November, 2010

Change the Weather History Date:

Tuesday, November 30, 2010

  Actual Average Record
Temperature  
Mean Temperature 80 °F -  
Max Temperature 83 °F 82 °F 89 °F (1999)
Min Temperature 76 °F 73 °F 71 °F (2001)
Cooling Degree Days 14    
Growing Degree Days 30 (Base 50)    
Moisture  
Dew Point 65 °F    
Average Humidity 57    
Maximum Humidity 65    
Minimum Humidity 45    
Precipitation  
Precipitation 0.00 in 0.11 in - ()
Sea Level Pressure  
Sea Level Pressure 29.95 in    
Wind  
Wind Speed 12 mph ()    
Max Wind Speed 20 mph    
Max Gust Speed -    
Visibility 6.9 miles    
Events Rain    
Averages and records for this station are not official NWS values.
T = Trace of Precipitation, MM = Missing Value Source: Averaged Metar Reports

Daily Weather History Graph

Daily Weather History Graph

Search for Another Location

Airport or City:

Trip Planner

Search our weather history database for the weather conditions in past years. The results will help you decide how hot, cold, wet, or windy it might be!

Date:

Astronomy

Nov. 30, 2010 Rise Set
Actual Time 6:27 AM AST 5:35 PM AST
Civil Twilight 6:03 AM AST 5:58 PM AST
Nautical Twilight 5:36 AM AST 6:25 PM AST
Astronomical Twilight 5:10 AM AST 6:52 PM AST
Moon 1:17 AM AST (11/30) 1:29 PM AST (11/30)
Length of Visible Light 11h 54m
Length of Day
11h 08m
Waning Crescent, 30% of the Moon is Illuminated
Nov 30
Waning Crescent
Dec 5
New
Dec 13
First Quarter
Dec 21
Full
Dec 28
Last Quarter

Hourly Weather History & Observations

Time (AST) Temp. Heat Index Dew Point Humidity Pressure Visibility Wind Dir Wind Speed Gust Speed Precip Events Conditions
12:00 AM 78.8 °F - 64.4 °F 61% 29.98 in 6.2 mi East 16.1 mph - N/A   Partly Cloudy
1:00 AM 78.8 °F - 64.4 °F 61% 29.95 in 6.2 mi ENE 10.4 mph - N/A   Partly Cloudy
2:00 AM 78 °F - 65 °F 57% 29.95 in 12 mi East 11.5 mph - - Rain Light Rain Showers
2:00 AM 78.8 °F - 66.2 °F 65% 29.95 in 6.2 mi ENE 10.4 mph - N/A   Scattered Clouds
3:00 AM 78.8 °F - 64.4 °F 61% 29.92 in 6.2 mi ENE 16.1 mph - N/A   Partly Cloudy
4:00 AM 77.0 °F - 62.6 °F 61% 29.92 in 6.2 mi ENE 12.7 mph - N/A   Partly Cloudy
5:00 AM 77 °F - 63 °F 52% 29.93 in 19 mi East 11.5 mph - -   Scattered Clouds
5:00 AM 77.0 °F - 62.6 °F 61% 29.92 in 6.2 mi ENE 11.5 mph - N/A   Partly Cloudy
6:00 AM 77.0 °F - 62.6 °F 61% 29.92 in 6.2 mi ENE 12.7 mph - N/A   Partly Cloudy
7:00 AM 78.8 °F - 62.6 °F 57% 29.95 in 6.2 mi ENE 11.5 mph - N/A   Partly Cloudy
8:00 AM 80 °F - 65 °F 50% 29.96 in 37 mi East 11.5 mph - -   Partly Cloudy
8:00 AM 80.6 °F 82.3 °F 64.4 °F 58% 29.95 in 6.2 mi East 11.5 mph - N/A   Partly Cloudy
9:00 AM 82.4 °F 83.9 °F 64.4 °F 54% 29.95 in 6.2 mi East 10.4 mph - N/A   Partly Cloudy
10:00 AM 82.4 °F 84.6 °F 66.2 °F 58% 29.98 in 6.2 mi ENE 16.1 mph - N/A   Scattered Clouds
11:00 AM 82 °F - 67 °F 52% 29.97 in 44 mi ENE 19.6 mph - -   Partly Cloudy
11:00 AM 82.4 °F 85.4 °F 68.0 °F 62% 29.95 in 6.2 mi ENE 19.6 mph - N/A   Scattered Clouds
12:00 PM 80.6 °F 82.7 °F 66.2 °F 61% 29.95 in 6.2 mi East 19.6 mph - N/A   Mostly Cloudy
1:00 PM 82.4 °F 83.9 °F 64.4 °F 54% 29.92 in 6.2 mi ENE 18.4 mph - N/A   Scattered Clouds
2:00 PM 82 °F - 64 °F 45% 29.93 in 44 mi ENE 18.4 mph - -   Scattered Clouds
2:00 PM 82.4 °F 83.9 °F 64.4 °F 54% 29.92 in 6.2 mi NE 18.4 mph - N/A   Partly Cloudy
3:00 PM 82.4 °F 83.9 °F 64.4 °F 54% 29.92 in 6.2 mi East 16.1 mph - N/A   Partly Cloudy
4:00 PM 80.6 °F 81.8 °F 62.6 °F 54% 29.92 in 6.2 mi ENE 18.4 mph - N/A   Partly Cloudy
5:00 PM 80 °F - 63 °F 47% 29.93 in 44 mi ENE 16.1 mph - -   Scattered Clouds
5:00 PM 80.6 °F 82.3 °F 64.4 °F 58% 29.92 in 6.2 mi ENE 16.1 mph - N/A   Partly Cloudy
6:00 PM 78.8 °F - 64.4 °F 61% 29.92 in 6.2 mi ENE 10.4 mph - N/A   Partly Cloudy
7:00 PM 78.8 °F - 62.6 °F 57% 29.95 in 6.2 mi ENE 10.4 mph - N/A   Partly Cloudy
8:00 PM 78 °F - 65 °F 55% 29.98 in 40 mi ENE 9.2 mph - -   Scattered Clouds
8:00 PM 78.8 °F - 64.4 °F 61% 29.98 in 6.2 mi ENE 9.2 mph - N/A   Partly Cloudy
9:00 PM 78.8 °F - 64.4 °F 61% 29.98 in 6.2 mi East 11.5 mph - N/A   Partly Cloudy
10:00 PM 78.8 °F - 66.2 °F 65% 29.98 in 6.2 mi East 10.4 mph - N/A   Partly Cloudy
11:00 PM 79 °F - 66 °F 55% 29.98 in 34 mi East 10.4 mph - -   Partly Cloudy
11:00 PM 78.8 °F - 66.2 °F 65% 29.98 in 6.2 mi East 10.4 mph - N/A   Scattered Clouds